TimeCDT,TemperatureF,Dew PointF,Humidity,Sea Level PressureIn,VisibilityMPH,Wind Direction,Wind SpeedMPH,Gust SpeedMPH,PrecipitationIn,Events,Conditions,WindDirDegrees,DateUTC
12:52 AM,64.9,37.9,37,30.10,10.0,South,12.7,-,N/A,,Clear,190,2013-05-13 05:52:00
1:52 AM,64.9,39.9,40,30.09,10.0,South,13.8,-,N/A,,Clear,190,2013-05-13 06:52:00
2:52 AM,66.0,41.0,40,30.09,10.0,SSW,15.0,-,N/A,,Clear,200,2013-05-13 07:52:00
3:52 AM,64.0,43.0,46,30.09,10.0,SSW,12.7,-,N/A,,Clear,200,2013-05-13 08:52:00
4:52 AM,63.0,44.1,50,30.09,10.0,SSW,13.8,-,N/A,,Scattered Clouds,210,2013-05-13 09:52:00
5:52 AM,62.1,45.0,53,30.10,10.0,SSW,10.4,-,N/A,,Partly Cloudy,210,2013-05-13 10:52:00
6:52 AM,61.0,45.0,56,30.12,10.0,SW,9.2,-,N/A,,Scattered Clouds,220,2013-05-13 11:52:00
7:52 AM,63.0,46.0,54,30.14,10.0,SSW,9.2,-,N/A,,Partly Cloudy,210,2013-05-13 12:52:00
8:52 AM,69.1,46.0,44,30.15,10.0,SW,13.8,-,N/A,,Partly Cloudy,230,2013-05-13 13:52:00
9:52 AM,77.0,44.1,31,30.14,10.0,WSW,19.6,29.9,N/A,,Partly Cloudy,240,2013-05-13 14:52:00
10:52 AM,82.0,43.0,25,30.14,10.0,WSW,17.3,-,N/A,,Clear,240,2013-05-13 15:52:00
11:52 AM,84.9,41.0,21,30.13,10.0,SW,19.6,26.5,N/A,,Clear,220,2013-05-13 16:52:00
12:52 PM,88.0,37.9,17,30.12,10.0,SW,17.3,27.6,N/A,,Clear,230,2013-05-13 17:52:00
1:52 PM,91.0,37.0,15,30.09,10.0,SW,18.4,26.5,N/A,,Clear,230,2013-05-13 18:52:00
3:52 PM,93.0,33.1,12,30.05,10.0,SSW,17.3,28.8,N/A,,Clear,210,2013-05-13 20:52:00
4:52 PM,93.0,33.1,12,30.07,10.0,SSW,17.3,23.0,N/A,,Partly Cloudy,210,2013-05-13 21:52:00
5:52 PM,93.2,33.8,12,30.02,10.0,SW,16.1,23.0,N/A,,Partly Cloudy,230,2013-05-13 22:52:00
6:52 PM,89.6,33.8,14,30.05,10.0,SSW,13.8,-,N/A,,Clear,200,2013-05-13 23:52:00
7:52 PM,87.1,34.0,15,30.01,10.0,SSW,15.0,-,N/A,,Clear,210,2013-05-14 00:52:00
8:52 PM,82.0,35.1,18,30.03,10.0,SSW,15.0,-,N/A,,Clear,200,2013-05-14 01:52:00
9:52 PM,80.1,36.0,20,30.04,10.0,SSW,15.0,-,N/A,,Clear,200,2013-05-14 02:52:00
10:52 PM,77.0,37.0,24,30.05,10.0,South,19.6,25.3,N/A,,Clear,190,2013-05-14 03:52:00
11:52 PM,75.9,37.0,24,30.05,10.0,South,18.4,-,N/A,,Clear,190,2013-05-14 04:52:00